User: anonymous   Login
Location: Boca do Mato
(22.9085°S, 43.2930°W)
Time: 22:06:45
(UTC+00:00)
Language:

Cosmos 1470 - Orbit

View from above orbital plane
View from above orbital plane
View from above satellite
View from above satellite

Ground track
Ground track

The orbit data is extracted from the following two-line orbital elements,

1 14147U 83061A   20269.82419877 +.00000232 +00000-0 +11847-4 0  9992
2 14147 082.4828 303.0988 0016809 104.5820 255.7276 15.11461076785248
Epoch (UTC): 25 September 2020 19:46:50
Eccentricity: 0.0016809
inclination: 82.4828°
perigee height: 520 km
apogee height: 543 km
right ascension of ascending node: 303.0988°
argument of perigee: 104.5820°
revolutions per day: 15.11461076
mean anomaly at epoch: 255.7276°
orbit number at epoch: 78524

The dashed part of the orbit path shows where the satellite is in the earth's shadow,  

DLR